Regional Weather Roundup
Issued by NWS Charleston, SC

Current Version | Previous Version | Graphics & Text | Print | Product List | Glossary On
Versions: 1 2 3 4 5 6 7 8 9 10 11 12 13 14 15 16 17 18 19 20 21 22 23 24 25 26 27 28 29 30 31 32 33 34 35 36 37 38 39 40 41 42 43 44 45 46 47 48 49 50
000
ASUS42 KCHS 301012
RWRCHS

REGIONAL WEATHER ROUNDUP
NATIONAL WEATHER SERVICE CHARLESTON SC
600 AM EDT TUE JUN 30 2015

NOTE: "FAIR" INDICATES FEW OR NO CLOUDS BELOW 12,000 FEET WITH NO
SIGNIFICANT WEATHER AND/OR OBSTRUCTIONS TO VISIBILITY.

NOT ALL STATIONS ARE QUALITY CONTROLLED BY THE NATIONAL
WEATHER SERVICE. USE DATA WITH CAUTION...ESPECIALLY
DEWPOINT OBSERVATIONS.

SCZ027-030-031-034>040-042>050-301100-
...SOUTHEAST SOUTH CAROLINA...

CITY           SKY/WX    TMP DP  RH WIND       PRES   REMARKS
N CHARLESTON   PTCLDY    74  67  78 W6        29.99R
WATERFRONT PAR   N/A     77  71  82 VRB3      29.96R
MOUNT PLEASANT LGT RAIN  77  70  78 SW7       29.99R
JOHNS ISLAND   FAIR      75  72  88 CALM      30.00R
PINOPOLIS      NOT AVBL
MONCKS CORNER  FAIR      73  64  73 SW3       29.98S
SUMMERVILLE    NOT AVBL
BEAUFORT MCAS  CLEAR     75  65  70 W10       30.00R
BEAUFORT ARPT  FAIR      75  68  78 SW7       30.00R
HILTON HEAD IS NOT AVBL
WALTERBORO     SUNNY     70  64  83 SW3       30.00R
ALLENDALE      FAIR      70  66  88 CALM      29.98S

...SOUTHERN MIDLANDS AND PEE DEE...

CITY           SKY/WX    TMP DP  RH WIND       PRES   REMARKS
GEORGETOWN     NOT AVBL
KINGSTREE      NOT AVBL
ORANGEBURG     CLEAR     68  64  87 SW5       29.98R
BARNWELL       FAIR      70  66  88 SW3       29.99S
AIKEN          FAIR     N/A N/A N/A SW5       30.01F
MANNING        FAIR      72  63  73 SW3       29.97S
COLUMBIA       CLEAR     70  61  73 SW5       29.95F
SUMTER         CLEAR     72  62  70 SW9       29.94S
FLORENCE       CLEAR     70  65  84 SW5       29.96R
MYRTLE BEACH   CLEAR     75  66  73 SW6       29.99R
N MYRTLE BEACH CLEAR     75  68  78 W6        29.97R

$$

GAZ063-065-086>088-099>101-113>116-118-119-134>141-150-301100-
...SOUTHEAST GEORGIA...

CITY           SKY/WX    TMP DP  RH WIND       PRES   REMARKS
SAVANNAH ARPT  MOCLDY    71  66  84 W5        30.01R
HUNTER AAF     CLEAR     72  69  90 W5        29.99R
FORT STEWART   CLEAR     72  67  86 SW6       30.00R
STATESBORO     CLEAR     72  69  90 CALM      30.00S
SYLVANIA       SUNNY     72  69  90 CALM      30.01S
CLAXTON        FAIR      68  68 100 W3        30.01S

...CSRA...CENTRAL AND FAR SOUTHEAST GEORGIA...

CITY           SKY/WX    TMP DP  RH WIND       PRES   REMARKS
THOMSON        CLEAR     71  66  84 SW3       30.03S
AUGUSTA-BUSH   CLEAR     72  64  76 SW7       29.97S
AUGUSTA-DANIEL CLEAR     73  63  70 W3        29.99S
SWAINSBORO     FAIR      73  72  94 W5        30.01F
VIDALIA        CLEAR     72  68  88 W3        30.02S
EASTMAN        FAIR      73  73 100 W3        30.04F
HAZLEHURST     FAIR      74  74  98 CALM      30.02R
ALMA           CLEAR     69  68  96 CALM      30.02S FOG
WAYCROSS       CLEAR     73  73  99 SW3       30.03R
JESUP          FAIR      72  70  94 W3        30.03R
BAXLEY         FAIR      73  70  88 CALM      30.02S
BRUNSWICK      CLEAR     70  68  94 W6        30.03R
SAINT SIMONS   CLEAR     73  70  90 W6        30.03R

$$

SCZ027-028-034-036>038-045-046-048>050-GAZ119-141-301100-
...LAKE AND SUPPLEMENTAL COASTAL OBSERVATIONS...

STATION/POSITION TIME  TEMP    WIND        PRES    WAVE   SWELL
                       AIR SEA DIR/SP/G            HT/PER HT/PER/DIR
                 (UTC) (F)     (DEG/KT/KT) (MB)    (FT/S) (FT/S/D)
UPR LAKE MARION  NOT AVBL
WINYAH BAY       0845   76     250/  6     1014.0
LAKE MURRAY      0900   78     250/  7/ 11 1013.9S
ACE BASIN NERRS  NOT AVBL
FORT PULASKI     0900   76 84  250/  5/  7 1016.2S
SAPELO ISLAND    0900   76     260/  6     1016.0S

$$

ANZ835-935-AMZ111-154-330-350-352-354-370-450-454-472-301100-
...C-MAN AND BUOY OBSERVATIONS...

STATION/POSITION TIME  TEMP    WIND        PRES    WAVE   SWELL
                       AIR SEA DIR/SP/G            HT/PER HT/PER/DIR
                 (UTC) (F)     (DEG/KT/KT) (MB)    (FT/S) (FT/S/D)
BUOY 41004       0950   81 83  250/ 14/ 16 1015.0R   4/ 7   3/ 7
BUOY 41008       0950   80 79  270/ 10/ 12 1016.3R   2/ 8   2/130/ 8
FOLLY BEACH CMAN 0900   77     240/  6/  8 1015.3S
CAPERS NEARSHORE 0908   81     260/ 16/ 19 1015.0F
FRIPP NEARSHORE  0900   81     250/ 14/ 17 1015.1F


STATION/POSITION TIME  TEMP    WIND        PRES    WAVE   SWELL
                       AIR SEA DIR/SP/G            HT/PER HT/PER/DIR
                 (UTC) (F)     (DEG/KT/KT) (MB)    (FT/S) (FT/S/D)
5E ST. MARYS GA  0921      78                N/A     2/ 7
FRYING PAN BUOY  0950   81 80  240/ 14/ 16 1015.4R   4/ 7   2/130/ 8
BUOY 41025       0950   79 80  250/ 10/ 12 1014.6S   4/ 7   3/170/ 7
CAPE LOOKOUT NC  0900   79     240/  8/ 11 1014.3R
BUOY 41002       0950   78 80  230/ 16/ 17 1016.8R   6/ 6   3/170/ 8
BUOY 41010       0920   83 84  240/ 16/ 17 1017.7F
ST AUGUSTINE FL  1000   74 73  220/  4/  5 1019.0R


$$


USA.gov is the U.S. government's official web portal to all federal, state and local government web resources and services.